Theta_e
309 311 314 319 324 325 325 325 325 325 324 324 324 325 326 325 324 324 324 324 325 325 325 325 325 325 325 325 324 324 324 324 325 326 325 325 325 325 325 325 325 324 324 323 324 324 324 323 322 322 321 322 322 321 321 319 317 316 315 314 313 312 312 311 310 308 305 307 309 307 306 309 308 310 310 310 310 312 311 310 310 311 311 312 312
307 308 311 316 322 325 325 326 326 327 325 324 324 324 324 324 323 323 324 324 325 325 325 325 325 325 325 325 324 324 324 324 324 325 324 324 324 325 325 326 325 324 324 323 323 324 324 323 322 321 321 322 321 321 321 320 318 315 314 313 312 311 312 311 310 310 308 305 306 305 306 308 308 308 310 309 310 311 311 310 309 309 309 310 310
306 307 309 312 317 323 324 324 326 326 325 324 323 324 323 323 323 323 324 324 325 325 325 325 325 325 325 325 325 324 324 323 324 324 324 324 324 323 325 325 325 324 323 324 324 324 323 323 322 321 320 321 321 322 322 321 320 317 315 313 312 312 309 312 309 307 307 305 306 304 306 306 309 307 308 310 310 310 310 310 309 308 309 309 309
304 305 307 310 312 319 322 322 322 322 324 325 324 323 323 323 323 323 324 324 324 324 325 326 325 324 324 324 324 324 324 323 323 324 324 324 323 322 323 325 325 325 325 325 325 324 323 322 322 321 321 320 320 320 321 322 321 319 317 315 314 312 310 311 310 311 307 306 304 305 305 306 305 305 308 308 308 308 310 311 310 309 309 309 308
303 304 305 307 310 313 317 322 322 321 321 322 323 323 322 323 323 324 324 324 324 324 324 325 324 324 323 323 324 324 324 323 323 323 324 324 324 323 323 324 325 325 325 325 326 325 324 323 323 322 321 321 319 320 319 320 320 320 319 317 315 314 312 311 309 308 307 306 306 305 305 304 305 305 307 306 305 306 307 309 309 309 309 309 308
302 303 304 305 306 309 309 311 317 322 321 320 321 322 322 322 323 324 325 324 324 324 324 324 324 324 324 324 324 324 324 323 323 323 323 323 324 324 324 324 324 325 324 325 326 326 325 325 324 323 322 322 320 320 319 320 320 319 319 319 318 316 314 312 310 307 307 307 307 305 304 305 304 305 305 306 305 304 304 306 306 307 307 308 308
302 302 303 304 304 305 307 309 310 315 321 321 320 321 321 321 323 323 324 324 323 322 323 322 321 322 321 322 323 323 323 323 323 323 323 323 323 323 323 323 322 323 323 324 325 325 326 325 324 323 323 323 322 321 320 319 319 319 319 319 319 317 315 314 310 308 306 306 305 307 306 305 306 305 303 305 304 304 304 303 303 304 306 307 307
302 302 303 303 303 304 305 307 309 312 317 321 321 321 321 321 322 322 323 323 323 322 322 322 321 320 320 321 321 322 322 322 322 322 323 323 323 323 323 322 322 322 322 323 324 324 324 324 324 324 324 324 324 322 321 320 319 319 319 319 319 318 316 314 311 309 307 306 306 304 304 305 304 304 301 302 302 301 301 303 303 304 304 305 306
301 302 302 302 303 304 305 306 308 311 315 319 320 320 321 321 321 321 322 322 322 322 322 321 320 319 319 319 319 320 320 320 321 321 322 322 322 322 322 322 322 322 321 322 323 323 324 324 324 324 324 323 317 317 318 318 319 318 317 318 318 318 317 316 313 310 308 308 307 305 304 304 305 303 301 302 302 303 304 303 303 304 304 303 304
300 301 301 302 303 303 304 305 306 308 312 317 320 321 321 320 321 321 321 322 321 321 320 320 319 318 317 315 315 316 318 317 315 312 313 321 322 322 322 321 321 321 321 320 320 321 322 321 321 321 318 317 315 309 303 305 309 315 313 317 317 315 316 315 313 311 311 308 308 305 304 304 303 304 303 303 306 306 303 302 301 303 304 303 305
299 300 301 302 303 303 304 304 305 306 308 313 318 321 321 320 320 320 320 320 320 319 319 317 315 316 316 314 312 312 311 310 304 302 305 309 319 321 320 320 320 320 320 320 319 318 318 318 319 321 320 319 309 298 299 297 295 297 299 303 306 314 314 313 312 310 309 309 308 304 305 304 304 305 305 306 305 306 305 303 303 304 303 302 303
298 299 300 301 302 302 303 303 304 305 306 308 314 320 321 320 319 319 319 318 318 318 317 316 314 312 312 311 311 309 307 302 295 296 299 302 309 319 319 319 318 319 319 319 319 317 316 314 314 315 315 315 310 305 301 298 295 295 295 295 294 292 295 309 314 310 308 308 305 304 304 304 304 304 304 306 305 304 305 304 304 304 303 303 303
298 298 299 300 301 302 302 303 303 303 304 306 309 316 320 320 319 318 318 318 315 315 315 312 310 308 308 307 306 305 304 296 294 294 295 297 302 311 317 317 317 315 315 316 316 316 314 311 308 308 313 315 311 308 307 304 299 297 298 298 297 295 293 292 295 311 311 309 308 306 304 305 304 304 306 307 307 307 305 304 304 304 305 305 305
297 297 298 299 301 301 302 302 302 302 303 304 307 312 318 318 318 317 316 313 312 311 309 308 306 305 305 305 303 301 301 297 294 294 295 296 298 306 313 312 311 310 311 313 314 314 313 311 307 305 306 308 307 309 309 308 307 306 304 303 302 300 297 296 296 299 303 308 308 307 308 306 309 310 308 308 308 307 306 306 305 305 304 305 308
296 296 297 298 300 301 301 301 301 302 302 302 303 303 307 315 315 313 312 310 308 306 306 303 302 302 302 301 301 300 299 296 295 294 295 296 299 303 309 306 304 302 302 304 306 307 307 307 306 305 305 305 307 308 309 307 305 303 301 300 301 302 302 301 300 304 308 310 310 310 308 309 310 309 309 310 311 309 309 309 308 309 308 307 308
295 295 296 297 298 300 300 301 301 301 301 301 300 300 301 301 304 305 305 302 302 301 301 301 300 299 299 300 300 299 298 295 294 294 296 297 299 306 304 302 301 300 299 299 299 299 300 301 302 302 303 305 302 300 303 306 302 300 299 299 299 300 300 297 294 295 301 303 304 304 303 300 298 303 304 308 310 309 308 308 310 310 312 311 311
293 294 295 296 297 299 300 300 300 300 300 299 299 298 298 299 299 300 301 301 300 299 298 298 298 298 298 299 300 299 299 296 295 295 296 296 300 303 301 300 299 298 298 299 299 299 298 298 301 303 304 304 298 296 297 300 302 299 298 298 298 298 299 300 295 294 293 293 293 293 294 294 295 295 294 295 302 306 310 308 306 304 308 308 306
293 293 293 295 296 298 300 300 300 300 300 299 298 298 299 299 298 299 298 297 297 297 298 297 298 298 298 298 300 299 297 295 294 295 295 296 300 302 300 298 297 296 295 296 297 298 301 300 300 302 304 303 295 296 296 300 300 298 297 297 297 297 298 300 301 299 295 295 294 294 294 295 296 296 295 296 297 300 307 305 305 304 303 303 305
292 292 292 294 295 297 298 300 300 300 300 299 299 298 298 298 298 298 298 298 297 298 298 297 297 297 298 298 300 298 298 296 293 293 294 296 300 300 299 297 296 295 295 295 296 296 295 296 297 298 301 300 295 296 295 299 299 298 298 297 297 297 297 299 300 300 301 301 300 300 299 299 302 302 301 296 297 301 305 305 304 306 303 300 300
292 292 292 293 294 295 297 299 300 300 300 300 300 299 299 299 298 298 298 298 297 297 297 297 296 296 297 297 297 297 296 296 295 293 294 295 296 300 300 298 296 296 296 296 296 296 295 295 294 290 291 291 291 292 293 294 298 298 298 297 297 296 297 299 300 300 299 299 299 299 299 300 301 301 301 301 301 301 301 302 303 305 303 301 300
292 292 292 292 292 293 295 296 298 300 300 300 300 300 300 299 299 298 298 298 298 297 297 297 296 296 296 296 296 296 297 295 294 292 293 294 295 297 299 298 297 297 297 296 296 295 295 295 295 292 291 291 291 291 291 292 294 298 298 298 298 297 297 299 299 297 299 299 299 299 299 299 299 300 300 300 300 300 300 300 301 303 302 300 300
292 292 291 291 291 292 293 294 297 299 300 300 300 299 300 300 299 299 298 298 297 296 296 296 296 295 295 296 295 295 296 296 295 292 292 293 293 295 299 299 299 298 297 297 297 296 296 295 295 292 291 291 291 291 291 292 293 297 294 291 291 293 299 300 300 299 299 298 298 297 297 297 298 298 298 298 299 299 300 300 300 301 301 302 303
292 292 291 291 291 291 292 292 294 296 297 300 299 299 299 299 299 299 298 298 297 296 296 296 295 295 295 295 295 295 295 295 293 293 291 291 291 292 293 296 294 300 298 297 296 296 296 295 294 292 291 291 291 291 292 292 293 293 291 291 292 292 295 298 298 298 297 296 296 295 296 297 297 297 297 298 298 298 299 298 298 299 299 298 299
292 292 291 290 290 290 291 291 292 293 294 296 298 298 298 298 298 298 298 297 296 295 295 295 294 294 293 294 294 294 295 295 294 292 292 290 291 291 291 291 293 297 298 297 297 296 295 294 292 290 291 291 290 291 291 293 293 291 292 292 293 294 297 296 296 296 294 294 295 294 294 295 296 295 294 295 295 296 296 296 296 296 296 295 294
292 291 291 290 290 290 290 290 291 291 292 293 293 296 297 297 296 297 297 296 296 294 294 294 293 293 293 292 293 294 294 294 294 293 292 291 290 290 290 291 291 293 296 296 294 293 291 290 290 291 291 291 291 291 291 291 290 291 292 292 296 297 297 297 296 296 294 293 292 293 293 293 293 293 293 294 293 293 293 294 294 295 294 294 295
291 290 290 290 290 290 290 290 290 290 291 292 292 292 293 295 295 296 296 295 295 295 294 293 293 293 292 292 293 293 294 294 293 293 294 294 292 291 291 291 292 291 292 291 290 290 290 291 291 291 292 293 295 294 293 293 291 291 292 294 295 295 296 295 295 293 292 292 291 291 290 291 291 291 291 292 291 289 290 291 292 293 292 292 295
291 290 289 290 290 289 289 290 290 290 290 291 292 292 292 291 292 292 294 294 294 294 293 293 293 292 292 293 293 293 293 293 292 292 292 293 293 294 295 295 294 293 295 294 293 293 292 292 291 290 290 290 291 291 292 292 293 294 293 293 293 293 293 293 292 292 291 290 290 289 289 289 290 289 289 289 289 289 289 290 290 290 290 291 291
290 290 289 289 289 289 289 287 289 289 289 289 289 290 291 292 290 289 290 291 294 294 293 292 292 292 292 292 293 292 293 292 291 290 290 291 292 293 293 293 294 294 294 294 294 295 294 292 293 294 294 293 293 292 292 292 291 291 292 291 291 291 292 291 291 289 289 289 288 288 288 288 287 287 289 288 288 288 288 288 288 289 288 290 290
290 289 288 288 288 289 289 288 288 288 289 289 288 288 288 290 291 290 291 291 292 294 293 292 292 293 293 293 292 291 291 291 291 288 288 287 288 292 293 292 293 293 292 291 294 293 293 292 291 291 291 289 288 290 290 289 288 289 290 290 289 289 289 289 287 287 287 287 286 286 286 287 286 286 287 287 287 287 287 288 288 287 288 289 288
288 287 287 287 287 287 288 288 288 288 288 288 289 289 287 289 289 290 290 289 289 289 289 291 292 293 292 290 291 292 291 291 287 287 287 288 288 288 290 290 290 292 290 290 291 290 289 288 288 288 288 288 288 287 287 287 287 287 286 287 287 287 287 286 286 286 286 285 286 285 285 286 285 286 286 286 287 287 286 286 286 287 287 287 288
287 287 287 287 287 288 288 287 287 287 288 288 288 288 289 290 289 288 289 289 288 288 288 288 288 288 291 291 290 288 287 287 287 288 288 288 288 288 289 289 289 289 289 290 289 288 288 287 287 287 287 288 287 287 286 286 286 286 286 286 286 286 286 285 285 285 285 285 284 284 284 285 284 285 285 285 285 286 287 287 287 287 286 287 287
286 285 286 287 288 288 288 288 288 287 287 287 287 288 288 288 289 289 289 289 289 288 288 288 288 288 288 289 290 289 288 288 288 288 288 288 288 288 288 289 289 289 289 289 288 287 287 287 287 287 287 287 286 286 286 286 286 286 286 286 285 285 285 285 285 286 285 285 284 283 283 284 284 284 284 284 284 286 286 286 285 285 286 287 286
285 286 286 287 287 287 287 288 288 288 288 287 288 288 287 286 286 287 289 289 289 289 288 288 288 288 288 288 288 288 288 288 288 289 289 288 288 288 288 288 288 289 289 288 287 287 287 287 287 287 287 286 286 286 286 286 286 286 286 285 284 285 285 285 284 285 284 284 284 283 283 283 283 284 283 283 284 284 284 285 286 286 286 286 285
284 285 286 285 286 286 286 286 287 287 287 287 287 287 287 287 286 286 286 287 288 289 289 288 288 288 288 288 288 288 288 288 288 288 288 288 288 288 288 288 288 288 289 287 287 286 287 287 286 286 286 286 286 286 286 285 285 285 285 285 285 285 285 286 286 284 284 284 284 283 284 284 283 284 284 284 283 284 284 284 285 285 285 286 286
285 284 283 285 285 285 285 285 285 286 286 287 287 287 287 286 285 286 285 285 285 285 285 287 288 288 287 287 288 287 288 288 288 288 288 288 288 288 289 289 288 287 288 288 288 287 286 286 286 286 286 286 286 286 286 286 286 285 285 285 285 285 285 284 284 285 285 285 284 283 282 283 283 283 283 284 284 284 284 284 284 285 285 285 286
285 285 286 285 284 284 284 285 285 285 285 285 285 285 286 286 286 285 285 285 285 285 285 286 287 288 288 288 288 287 287 287 287 287 287 287 287 287 287 286 286 286 286 286 286 286 286 286 286 286 286 286 286 286 286 286 286 286 286 286 285 285 285 285 284 284 283 283 282 282 283 282 282 282 283 283 283 283 284 284 284 284 285 286 285
285 286 285 285 285 284 284 284 284 284 283 283 285 285 285 286 285 286 285 285 285 284 284 285 286 288 288 288 288 287 288 288 287 287 287 287 287 288 287 287 286 286 286 286 286 286 286 286 286 286 286 286 286 286 286 286 286 286 285 285 286 285 284 284 283 283 284 283 281 280 281 282 282 281 283 283 282 281 281 282 283 283 284 284 284
284 285 285 284 285 285 284 284 283 281 282 284 284 285 285 285 285 285 285 285 284 284 285 285 286 285 286 286 290 288 287 287 288 287 287 287 286 286 286 286 286 286 285 285 286 286 286 286 286 286 286 286 286 286 286 286 286 286 285 285 284 284 283 282 281 281 279 280 280 279 280 280 279 280 280 282 281 281 281 281 282 283 283 282 284
285 284 283 283 283 284 284 283 283 284 284 283 284 284 283 284 284 284 284 284 284 284 284 285 285 286 286 286 287 288 287 286 285 284 284 285 285 285 286 285 285 285 285 285 286 286 286 286 286 286 286 286 286 286 285 285 285 284 284 283 283 283 283 282 282 279 280 280 279 277 277 278 278 277 279 280 280 279 280 281 281 281 282 284 284
286 287 285 285 286 284 283 282 283 283 283 284 284 284 284 284 284 283 282 283 283 283 285 285 286 286 286 286 286 286 286 284 283 282 284 285 285 285 286 285 285 285 285 286 286 286 286 286 286 286 286 286 286 286 285 285 284 283 283 284 284 284 280 280 280 280 280 278 280 279 279 280 279 278 279 282 282 281 282 283 283 282 282 283 284
287 286 285 285 285 285 284 283 283 284 284 283 283 283 283 282 282 281 282 282 282 283 285 285 286 286 286 286 286 285 285 284 284 284 285 286 286 286 286 286 286 286 286 286 287 287 286 286 286 286 285 286 286 286 286 285 283 284 283 282 282 281 279 279 278 280 279 280 280 281 281 281 281 284 285 284 284 283 283 283 284 284 284 283 284
286 287 287 287 286 286 285 284 283 283 284 283 283 283 282 282 282 282 281 281 281 282 284 286 286 286 286 287 286 286 285 285 285 286 287 287 287 287 287 287 287 287 286 287 287 286 286 286 285 285 284 283 284 283 284 283 283 283 282 282 282 282 282 282 281 280 280 282 281 281 281 283 283 283 283 284 284 285 285 285 285 285 286 285 285
285 285 286 286 287 286 285 285 283 284 284 284 282 282 282 283 283 280 280 280 282 282 284 285 286 287 286 284 284 283 285 286 285 286 286 286 286 286 287 286 286 286 286 286 286 286 286 285 285 284 283 283 284 284 285 284 283 282 282 282 282 282 282 282 281 282 281 282 283 282 281 282 283 284 285 284 284 285 285 284 284 285 285 285 285
285 285 285 285 286 286 285 284 284 283 284 283 283 282 282 282 282 283 283 282 281 282 284 285 285 286 286 286 285 285 286 286 286 286 286 285 285 285 286 285 285 286 286 286 285 285 285 284 283 281 283 283 284 283 281 280 281 282 282 282 281 280 280 281 281 281 281 282 283 283 282 282 283 284 284 284 284 285 284 284 284 284 284 284 284
285 285 285 286 286 286 286 285 284 283 282 283 285 284 283 284 283 282 282 281 281 283 283 285 286 286 286 286 286 286 286 286 285 285 285 285 284 284 284 285 284 285 284 284 284 285 283 283 282 282 281 280 282 282 281 280 280 279 281 283 284 283 281 281 282 280 279 281 283 284 283 284 283 284 284 284 283 283 284 284 284 283 284 284 284
284 284 285 286 286 286 286 286 283 283 283 284 285 285 284 284 284 283 282 283 283 283 283 285 286 286 286 286 286 286 286 287 286 285 284 284 283 283 281 281 282 283 281 281 281 281 279 280 280 281 280 279 280 282 283 283 283 282 282 282 282 281 280 280 277 277 277 279 282 283 284 283 283 284 283 283 283 283 282 282 283 283 283 283 283
283 284 285 284 286 285 286 285 285 284 284 284 284 285 285 284 284 283 282 283 284 283 284 285 286 287 286 287 287 287 286 286 286 285 286 286 285 284 281 281 281 281 280 280 278 278 278 278 279 280 279 278 280 282 282 282 282 282 282 282 282 281 279 277 276 278 277 278 279 281 282 283 282 282 281 281 282 282 282 282 283 283 283 283 283
284 284 284 285 284 285 285 285 285 284 284 284 285 285 284 284 284 284 284 284 284 284 284 285 286 287 287 287 287 287 286 286 286 286 286 285 283 281 282 281 280 280 279 279 278 277 278 278 278 279 279 279 279 279 281 282 282 282 282 282 282 281 280 278 280 280 280 279 280 280 280 282 281 281 282 281 282 282 283 283 282 283 283 283 283
284 284 284 284 284 284 284 285 285 285 285 285 284 285 284 284 283 284 284 284 284 284 284 286 287 287 287 287 287 287 287 286 287 287 287 285 284 283 281 281 280 280 279 279 277 276 277 279 279 278 278 277 278 278 280 281 282 282 282 281 279 274 274 275 278 280 280 280 280 280 280 281 281 281 281 281 280 280 280 281 282 282 283 283 283
284 283 283 283 283 284 284 284 284 284 284 284 285 284 283 284 284 284 283 283 283 284 284 285 286 287 288 287 287 287 287 287 286 286 287 285 284 282 281 281 280 278 278 277 277 277 278 278 278 276 275 275 275 276 277 278 279 279 279 278 274 274 274 274 275 275 278 279 279 280 281 281 280 280 279 279 279 278 279 280 280 281 282 282 284
282 282 283 282 283 283 283 283 284 284 284 284 284 284 283 285 286 285 284 284 285 285 284 285 286 287 287 288 287 288 288 288 286 286 286 285 284 282 281 281 280 279 278 277 277 278 278 278 277 276 276 275 275 276 276 277 276 275 275 274 274 274 274 274 277 275 275 277 279 280 281 281 280 280 280 279 278 279 279 279 279 280 281 282 282
Wind_Speed
11 11 11 11 9 9 7 7 6 4 4 8 9 8 6 6 7 7 6 7 7 8 8 7 9 9 9 8 8 8 8 7 6 6 7 7 6 7 7 7 8 7 6 6 6 7 7 8 8 7 7 7 7 6 6 7 6 6 5 5 6 5 6 6 6 3 0 0 3 5 4 6 4 5 6 5 5 5 5 4 4 4 4 5 5
11 12 12 12 12 8 6 5 6 5 4 6 6 4 6 7 5 5 7 7 7 8 8 7 7 9 9 10 9 8 7 7 6 6 6 5 6 5 7 8 8 7 6 6 6 6 7 8 7 7 8 8 7 7 7 6 6 6 6 6 7 6 5 6 5 5 5 2 3 2 4 4 5 5 7 8 7 5 6 5 4 4 5 4 4
11 11 11 12 15 11 6 4 3 4 6 6 7 7 7 7 4 6 7 6 6 7 7 6 7 7 8 8 7 7 7 7 6 7 7 8 7 6 6 7 7 7 8 7 8 7 7 8 8 6 4 6 7 7 7 7 6 7 7 7 7 6 4 3 5 5 6 5 3 4 5 5 7 6 7 5 4 5 6 7 6 4 4 4 4
12 11 11 12 13 13 9 7 5 4 5 7 8 8 6 8 8 7 7 3 4 4 5 5 5 7 6 6 7 8 9 7 7 7 8 8 7 9 6 6 7 8 8 8 7 8 8 8 7 7 8 7 6 6 6 6 7 6 8 8 7 7 7 7 5 5 5 5 5 6 4 6 5 2 4 4 5 5 5 3 4 5 5 5 5
12 12 12 12 12 12 13 10 7 5 4 4 6 8 8 8 7 8 6 6 7 7 5 4 5 5 7 7 7 7 8 8 8 7 7 7 8 8 9 9 9 9 9 8 8 8 8 8 7 7 7 7 6 6 6 8 6 6 8 7 7 7 6 7 6 5 5 6 5 2 3 2 1 2 5 6 4 4 3 5 5 5 5 5 5
11 11 11 12 13 12 11 14 14 8 6 5 6 7 7 8 8 7 5 6 7 6 5 4 5 5 4 4 5 5 6 6 7 8 8 8 8 8 9 10 9 8 8 8 8 8 8 8 7 8 7 8 8 7 7 8 7 7 7 7 8 6 7 6 5 5 6 6 5 4 3 5 3 3 4 5 5 5 4 3 3 4 5 6 6
10 10 11 11 12 13 11 10 10 13 8 7 5 4 5 6 6 6 7 7 7 6 6 5 3 1 2 3 4 5 6 7 7 8 8 7 7 8 7 7 7 7 7 7 7 7 7 7 6 7 8 8 8 9 8 8 7 9 9 9 7 7 7 7 6 7 6 6 4 4 4 2 3 5 3 5 3 3 5 4 6 5 5 6 7
10 10 10 10 11 12 13 12 11 10 10 8 6 6 5 5 6 5 5 6 8 8 9 8 6 2 3 3 5 6 3 5 6 7 7 8 7 7 7 8 7 7 7 6 6 7 7 8 8 8 8 8 8 8 9 9 7 8 7 7 7 8 7 6 7 7 7 6 6 5 4 4 2 1 3 4 4 3 5 6 8 7 9 7 7
10 10 11 11 11 11 11 12 11 12 11 9 7 6 7 7 5 5 6 6 7 9 9 8 6 7 5 5 5 5 7 8 7 7 7 7 8 8 8 8 8 7 7 7 7 7 6 6 6 6 7 7 8 8 12 9 7 8 7 7 7 8 7 5 6 7 5 5 5 3 4 4 4 5 6 6 9 11 6 7 8 7 1 3 6
10 10 12 12 11 11 11 10 11 12 12 10 8 8 7 7 7 6 6 6 8 9 9 8 8 9 8 6 5 5 6 7 8 12 10 9 8 7 7 7 8 7 8 7 6 6 6 5 5 7 8 9 11 1 12 9 6 5 4 5 7 8 7 7 5 5 6 7 6 6 5 6 7 9 8 9 6 4 6 7 9 4 2 4 6
11 11 12 11 12 12 12 11 10 11 11 11 9 8 8 6 6 6 6 7 8 8 8 8 7 7 8 8 7 5 5 5 9 11 13 12 9 7 8 7 7 7 7 8 8 7 5 5 5 6 7 5 8 12 9 9 11 11 8 4 3 0 4 6 8 7 7 6 5 5 7 8 9 7 8 4 4 6 4 6 5 3 5 4 7
11 11 12 12 13 13 12 13 12 10 10 10 11 8 8 7 7 7 7 8 7 7 8 8 7 7 6 7 7 6 6 7 9 9 9 11 9 8 7 7 7 7 7 7 6 7 7 5 4 3 4 6 8 8 9 10 13 14 13 11 10 8 2 5 6 6 7 7 6 8 8 9 6 6 6 5 5 5 5 5 6 6 5 5 4
11 12 12 13 13 13 13 12 13 12 12 11 10 10 8 8 8 8 9 8 6 8 8 6 6 6 7 8 7 6 6 6 8 8 9 10 11 8 6 6 7 6 6 6 6 7 7 7 6 4 5 11 9 8 10 10 12 15 15 14 13 12 11 8 4 6 7 7 8 7 8 5 5 7 9 7 6 7 5 5 5 5 4 5 5
11 12 12 13 13 13 13 12 13 12 12 12 11 11 8 7 7 7 6 7 8 7 6 7 6 6 7 8 7 6 6 5 7 8 8 10 9 6 5 6 5 5 4 5 6 7 8 9 7 5 4 7 8 10 9 9 9 8 8 7 7 9 11 11 10 5 4 6 6 7 4 3 5 4 5 5 7 7 7 7 5 5 5 5 4
12 12 13 13 13 13 13 13 13 13 13 12 10 11 13 5 6 6 6 7 8 8 9 7 5 5 5 6 6 6 4 2 6 7 8 10 11 8 6 6 6 6 5 5 5 5 5 5 7 7 7 6 7 11 11 9 9 7 8 8 7 7 7 8 7 5 5 5 4 5 4 3 4 4 3 3 4 4 5 6 7 6 4 1 1
12 12 13 14 14 14 13 13 12 12 13 12 13 14 11 13 12 9 3 6 5 5 5 6 6 6 5 5 5 5 2 3 7 9 12 13 13 7 7 8 8 7 7 6 6 5 5 7 7 6 6 7 9 13 12 10 10 11 9 7 7 7 8 7 11 9 8 7 5 5 5 6 6 4 3 3 6 7 7 6 5 4 3 1 3
12 12 12 13 13 13 13 13 12 12 12 12 13 12 14 14 13 10 9 5 6 6 5 5 5 5 4 3 5 5 5 5 7 9 13 16 11 8 7 7 6 7 6 5 6 5 5 5 7 8 7 7 9 12 14 13 10 10 9 8 6 7 7 6 12 13 15 16 15 14 13 14 14 14 14 11 6 4 5 7 4 2 4 3 2
11 11 11 12 12 12 13 13 12 12 12 13 11 11 12 11 12 12 11 10 9 6 5 7 7 7 6 5 2 6 6 7 9 7 7 8 13 10 7 8 7 6 6 5 5 6 7 9 6 8 9 8 12 13 14 13 10 9 10 10 9 9 6 4 5 8 13 15 15 14 14 14 15 17 16 15 14 8 3 6 2 3 4 2 0
11 11 11 10 11 11 12 12 12 12 13 11 10 10 11 12 11 12 12 11 10 8 7 7 8 9 9 8 11 8 7 8 10 9 10 7 7 8 8 8 8 5 5 6 5 5 6 8 10 6 8 12 14 13 12 12 10 10 10 10 10 9 6 5 6 7 6 8 8 10 11 10 10 9 10 15 14 10 7 5 2 5 5 3 2
9 9 10 10 10 11 11 12 12 12 12 12 12 10 8 11 14 13 13 11 10 9 9 9 10 10 9 11 10 9 8 7 10 12 10 10 7 7 6 10 9 8 6 5 6 5 6 6 9 11 12 13 13 12 10 11 11 8 7 8 10 9 3 5 5 6 7 8 7 7 7 7 7 8 8 8 9 8 8 6 5 4 5 3 2
8 9 9 11 12 12 11 10 12 12 11 11 11 11 10 10 12 15 13 12 11 11 11 9 10 11 11 11 11 11 10 9 11 14 14 13 11 8 7 8 8 8 7 7 5 6 5 6 5 10 14 15 15 15 14 12 10 7 6 7 5 7 6 7 7 8 8 8 7 7 6 6 6 5 5 5 5 5 5 5 4 3 3 3 2
7 9 10 10 11 11 11 12 11 10 11 11 12 12 12 12 11 11 12 13 14 13 12 10 8 10 11 11 12 11 14 18 11 15 17 16 16 13 8 7 6 9 10 8 7 6 6 5 6 9 15 15 15 15 15 14 14 11 9 13 14 13 9 7 6 6 6 6 6 6 6 6 5 6 6 6 5 5 5 4 4 3 2 0 1
8 9 9 10 10 10 10 12 11 10 10 11 12 12 11 12 13 12 11 12 15 13 13 12 9 9 11 10 10 11 11 12 18 12 16 17 18 17 15 11 11 7 9 10 9 8 6 7 8 13 16 16 15 15 15 16 13 10 14 14 14 13 11 7 7 7 7 6 7 7 6 5 6 6 5 5 5 5 4 4 4 3 3 2 2
9 10 9 9 9 9 9 10 11 10 11 10 11 12 13 11 11 11 11 11 10 11 10 10 10 11 11 10 9 10 10 9 13 16 14 17 17 17 17 16 13 9 9 8 7 7 8 8 9 16 17 16 16 15 14 12 12 15 15 14 12 10 8 8 7 7 7 7 7 6 5 4 4 4 4 3 3 4 2 3 3 3 4 4 4
9 9 9 8 9 7 8 9 9 10 9 10 10 10 10 11 11 11 11 11 11 11 9 8 9 9 10 10 9 9 9 9 9 12 16 16 17 17 17 17 15 13 11 8 8 9 11 14 15 16 18 17 16 15 13 12 14 14 15 13 10 6 6 6 5 6 6 6 5 5 4 4 3 3 2 2 1 2 1 3 2 3 3 2 2
9 8 8 8 8 8 9 9 9 9 9 8 8 8 8 8 8 8 9 9 9 9 9 9 9 9 10 10 10 10 9 9 9 9 9 10 11 16 17 18 19 18 15 12 12 14 14 15 15 14 13 12 9 8 8 10 14 15 15 13 8 7 5 5 4 6 6 5 5 5 4 2 3 2 2 2 5 6 5 4 4 5 5 5 3
8 7 8 7 7 8 8 7 7 8 8 8 8 8 8 7 7 6 6 6 8 8 8 8 8 9 9 8 8 9 9 9 9 9 8 8 7 7 9 10 13 13 10 8 9 10 12 12 11 13 12 15 13 10 10 9 10 9 9 9 8 7 6 5 5 5 5 5 5 4 3 3 2 4 5 5 6 5 5 3 3 4 4 2 4
6 6 7 6 6 6 6 8 8 7 8 8 8 8 7 7 7 7 5 4 4 5 5 6 6 6 7 7 7 7 7 6 7 7 7 6 6 5 5 6 6 6 8 8 7 7 8 9 10 7 8 9 8 7 8 8 8 8 6 6 7 7 7 8 7 6 4 4 4 4 4 5 5 4 4 5 5 5 5 4 4 4 5 3 4
7 7 6 6 6 5 6 6 6 6 6 7 7 7 6 6 6 6 6 4 3 3 5 4 3 3 3 4 5 6 5 5 5 5 5 5 3 3 4 5 6 6 7 9 8 7 8 8 7 8 8 8 7 7 7 7 8 7 6 6 5 5 4 4 5 4 4 5 6 5 5 5 5 4 4 5 5 5 5 4 4 3 2 4 6
6 7 6 6 5 6 6 6 5 6 6 6 6 7 8 10 7 6 5 8 10 9 5 3 2 1 3 3 2 2 2 2 4 8 7 7 7 7 6 7 8 7 8 9 7 7 6 7 6 7 6 6 5 5 5 5 5 6 6 6 6 5 5 5 5 5 6 6 5 5 5 4 5 4 4 4 3 4 4 4 4 4 4 5 5
6 6 6 6 5 5 5 6 6 5 5 5 5 6 6 8 11 12 9 9 10 11 11 10 9 7 4 2 2 6 4 2 5 5 6 6 6 7 8 9 10 10 7 8 7 6 6 7 6 5 5 5 4 4 4 5 5 6 5 5 5 6 6 6 4 4 5 5 5 5 4 4 4 3 4 3 4 4 4 4 4 5 5 4 4
5 6 5 5 5 6 5 5 5 5 6 5 5 5 5 6 7 9 11 12 13 14 13 12 11 11 10 6 3 3 6 7 7 7 7 8 9 9 10 9 7 7 5 9 8 5 5 6 6 5 4 5 4 4 4 5 5 5 4 6 5 4 5 5 3 5 4 5 5 4 4 3 3 4 4 3 3 4 5 4 5 4 4 4 5
5 5 6 7 6 5 6 5 5 4 4 4 5 5 5 5 6 6 7 8 11 14 15 14 13 11 11 11 11 9 8 8 9 9 10 10 11 11 12 10 8 4 6 8 7 6 4 5 5 5 5 5 3 4 4 4 5 5 4 4 4 4 5 4 3 5 4 4 4 4 3 3 3 3 4 5 5 4 4 5 6 5 6 4 3
3 3 4 5 6 6 5 5 5 5 4 4 3 4 4 5 5 5 6 6 7 8 11 15 15 13 12 12 11 11 11 10 10 9 10 9 9 10 10 9 12 10 7 6 6 6 5 6 5 5 5 5 5 5 4 4 4 4 5 6 5 4 4 2 4 4 4 3 4 3 4 3 2 3 4 5 5 5 6 4 4 4 4 4 2
4 5 7 5 4 4 4 4 4 4 4 4 4 4 5 5 5 5 5 5 5 6 6 8 11 14 10 9 10 10 10 10 9 8 8 7 7 7 8 7 7 5 7 6 6 5 5 5 5 5 5 5 3 3 4 4 5 4 4 4 4 4 3 4 4 4 3 3 4 4 3 4 4 4 4 3 4 5 5 4 3 3 3 2 3
4 5 5 5 5 4 4 4 3 4 4 4 4 4 4 4 5 5 4 5 5 5 5 5 5 6 11 12 13 12 11 10 10 10 8 8 6 5 5 4 5 4 5 4 5 5 5 5 5 5 4 4 4 4 4 5 5 4 4 4 4 3 3 3 3 4 3 4 4 5 5 4 3 3 3 4 4 4 2 2 1 1 1 1 1
4 5 5 4 4 3 2 2 3 3 3 3 4 4 4 4 4 4 4 5 5 4 4 5 5 6 7 7 9 9 10 10 11 12 12 11 11 8 5 4 4 5 6 5 5 5 6 5 5 5 4 5 4 4 5 5 4 5 4 4 4 4 3 3 3 3 4 4 4 4 4 3 2 3 3 3 2 1 1 1 1 1 1 3 3
3 4 4 2 3 4 2 2 3 3 5 4 4 4 4 4 4 4 5 5 4 4 5 5 4 5 5 5 6 5 6 7 9 10 9 9 7 5 5 4 5 5 5 4 4 5 5 4 4 5 4 4 5 5 5 5 4 3 5 5 4 4 5 5 3 5 4 3 3 2 2 2 1 1 2 3 3 3 3 1 3 3 4 3 2
4 5 8 7 4 4 4 1 2 4 4 4 3 3 3 3 3 4 5 4 3 3 3 4 5 5 4 5 5 5 5 5 4 3 4 4 4 3 4 5 5 5 4 4 4 5 5 4 4 4 4 5 5 5 5 3 4 3 3 4 4 3 3 3 3 3 2 2 1 1 0 0 0 1 1 2 2 1 1 2 2 3 3 2 2
5 5 6 8 5 4 4 2 1 3 4 4 2 3 2 2 2 2 3 3 3 3 2 3 4 4 5 5 5 4 3 2 2 3 3 3 3 4 5 4 3 4 4 4 4 4 5 4 4 4 5 5 5 5 4 4 3 3 3 3 3 4 3 2 2 2 2 1 1 0 1 1 1 2 2 2 1 1 2 3 2 1 1 1 2
4 5 4 4 5 4 3 3 1 2 3 3 3 2 1 0 2 2 2 2 2 2 2 3 3 3 3 4 6 5 3 3 4 4 3 3 3 3 3 3 2 4 4 3 3 3 4 3 3 3 3 3 3 3 4 3 3 3 3 3 3 3 2 2 2 2 3 2 2 1 1 1 1 2 3 2 1 2 1 1 0 0 0 1 1
5 5 5 5 5 5 4 3 3 2 2 3 3 3 2 1 1 3 2 1 2 2 2 3 3 4 5 8 7 6 5 3 3 3 4 4 4 4 2 3 2 2 1 2 3 3 2 3 2 2 3 2 3 3 3 3 2 3 2 2 3 2 2 2 1 1 2 2 2 2 2 2 2 2 2 2 2 2 2 2 2 1 2 2 2
4 5 4 4 5 5 5 5 2 2 3 3 3 3 3 3 3 2 2 3 2 2 1 2 2 4 5 6 5 5 4 3 3 3 3 3 3 1 2 1 2 2 2 2 2 2 3 3 3 2 2 2 2 2 3 3 2 2 3 3 3 3 3 1 1 1 1 2 2 2 3 2 2 2 2 2 2 1 2 2 2 2 1 1 2
4 4 4 4 4 4 3 4 5 4 2 2 4 4 4 4 3 3 3 3 2 1 1 0 2 2 1 4 3 4 3 4 4 3 3 3 2 2 1 1 1 2 3 2 1 1 2 3 3 2 2 2 1 2 2 2 3 3 3 3 3 3 1 1 1 1 1 1 1 2 2 2 3 2 2 2 2 2 2 2 2 2 2 2 2
4 4 5 5 5 5 5 3 4 5 3 2 2 0 2 4 4 3 3 2 3 3 2 1 2 1 1 1 3 2 1 1 1 1 1 1 1 1 0 0 1 2 2 2 1 1 2 3 2 3 3 2 1 1 2 1 1 1 1 3 3 2 2 2 1 1 2 2 1 2 2 2 2 2 2 1 1 1 1 2 2 3 3 3 2
4 4 4 4 5 5 4 5 4 4 4 2 2 2 0 2 3 4 4 4 4 3 3 2 1 1 1 2 3 3 2 1 2 1 1 0 0 0 0 0 1 1 2 1 1 2 2 2 2 3 3 2 2 1 1 1 1 1 1 0 0 1 0 1 2 2 2 2 1 1 1 2 1 1 1 0 0 0 0 1 0 1 1 2 1
3 4 4 4 4 5 4 4 4 5 4 3 2 2 1 1 2 3 4 4 4 4 4 3 4 2 1 0 1 2 2 2 1 2 2 3 1 2 1 0 0 0 1 1 0 1 2 2 2 3 3 2 2 2 1 1 1 1 0 0 0 1 1 2 2 2 1 1 2 1 1 1 1 1 0 0 0 0 1 2 2 2 2 2 2
2 3 4 4 4 5 5 5 5 4 4 3 1 2 0 2 2 3 3 4 4 4 3 1 1 1 2 2 2 3 1 2 1 0 1 1 0 0 0 0 0 0 1 1 1 1 1 2 2 3 3 3 2 2 1 0 0 0 0 0 0 0 2 2 0 0 1 2 3 2 2 2 1 1 0 0 1 1 2 2 1 0 1 2 1
3 3 4 4 5 5 5 5 4 4 4 3 1 1 1 1 1 2 2 3 4 3 3 3 2 3 1 3 2 3 3 1 1 2 1 0 1 1 0 0 1 1 1 0 0 1 1 1 2 2 2 2 1 1 1 0 0 0 0 0 2 5 5 3 1 1 2 2 2 2 2 2 2 1 0 0 0 0 1 1 2 2 1 1 1
3 4 5 5 5 5 4 3 4 4 3 1 1 1 1 2 2 2 2 2 2 3 3 3 4 3 1 2 2 1 1 3 2 2 2 0 0 1 1 1 1 1 1 1 0 0 0 1 2 3 3 3 2 2 1 1 0 0 0 1 4 4 3 1 0 0 1 1 2 2 2 2 1 1 0 0 0 1 2 2 2 1 1 2 1
4 4 5 5 5 5 5 4 4 4 3 2 2 2 3 4 4 2 2 3 3 4 3 4 4 3 3 4 3 1 2 3 2 2 3 1 1 1 1 1 1 1 1 1 1 1 0 1 1 2 3 3 3 2 1 1 0 0 1 2 2 2 2 2 1 3 1 2 2 2 1 1 1 1 1 1 0 1 1 2 1 1 1 1 1
Wind_Direction
338 332 323 318 300 274 263 264 265 245 213 219 231 227 235 227 204 204 184 192 187 196 203 179 170 172 177 186 188 183 181 184 182 174 184 182 177 179 171 175 178 186 178 179 175 175 183 193 193 192 168 167 172 168 178 174 170 180 175 170 174 162 162 168 189 207 345 224 162 181 157 144 176 188 171 182 190 195 199 199 200 213 224 226 230
332 328 325 315 316 291 271 265 268 266 227 230 238 223 233 242 228 199 200 194 186 195 203 184 180 175 175 182 189 182 179 179 175 169 168 163 181 171 174 175 186 180 174 179 178 178 180 192 192 182 182 172 163 171 175 166 172 167 172 179 180 183 187 168 195 167 202 181 160 72 148 183 174 185 188 183 195 182 199 202 204 213 223 230 232
332 328 324 324 322 310 283 254 222 223 224 211 219 216 207 232 242 230 216 204 192 198 201 197 182 175 183 182 173 170 173 179 178 172 171 182 169 149 165 179 178 172 180 183 182 174 180 194 198 176 147 171 168 173 165 173 169 175 178 183 191 179 150 172 145 193 181 219 188 165 180 182 196 182 201 203 178 185 195 206 206 207 221 221 236
341 339 334 327 323 319 298 281 263 231 210 203 207 205 194 212 201 216 229 199 176 218 218 198 177 180 181 172 175 169 171 174 177 182 183 181 168 184 167 186 191 182 184 184 178 178 183 187 195 167 176 167 166 165 177 164 168 174 179 191 189 168 183 195 178 172 192 183 216 200 176 168 214 168 171 163 174 190 211 210 211 224 220 222 227
342 340 338 331 327 331 330 317 303 295 258 220 192 192 197 205 213 214 183 181 201 201 194 181 180 189 188 184 183 173 168 168 177 185 187 183 174 176 187 195 195 190 188 184 182 178 180 188 185 171 168 172 170 174 166 176 175 172 177 182 188 184 182 195 189 163 159 200 209 203 139 196 161 149 169 170 180 193 189 213 219 226 232 232 234
344 342 342 339 337 335 338 342 334 306 276 256 221 205 199 198 203 202 188 189 194 193 179 176 181 199 210 200 188 164 149 165 185 189 184 180 178 178 181 192 194 187 187 182 183 183 183 187 173 174 171 179 183 180 176 179 172 180 178 176 186 169 179 188 183 181 191 212 180 163 193 172 168 191 183 183 167 184 204 212 230 229 228 241 235
345 348 347 344 342 340 332 330 325 322 291 258 248 224 207 203 201 198 183 178 168 153 150 152 146 164 168 146 166 175 182 169 189 196 184 180 180 176 180 187 177 186 201 193 186 187 191 184 178 174 182 186 182 185 180 179 181 186 181 173 177 172 180 183 175 187 200 211 200 194 173 202 158 186 167 176 174 183 187 175 245 220 215 224 245
350 352 352 351 348 338 331 322 318 313 309 280 253 240 223 211 207 198 186 170 157 160 181 190 169 136 244 201 159 149 158 209 201 192 182 182 179 183 181 183 180 190 192 187 185 189 186 191 194 188 187 189 186 190 184 181 180 184 178 175 171 179 182 169 172 181 196 206 208 201 184 158 140 66 92 137 170 236 206 185 216 221 217 215 231
353 353 357 358 351 339 328 323 317 314 312 299 258 236 230 222 215 187 189 185 167 170 181 185 169 182 206 207 187 172 164 191 202 185 180 183 183 184 184 183 183 182 186 189 192 189 189 191 192 187 189 192 207 198 198 185 173 180 184 177 182 187 184 171 183 176 190 193 205 155 152 170 176 144 158 171 194 210 171 180 225 234 197 237 245
358 357 359 355 349 344 335 326 323 318 311 305 274 244 225 218 209 199 194 191 180 173 175 180 184 183 179 192 195 185 180 181 196 190 185 181 184 184 180 185 184 182 179 180 182 187 185 182 183 184 183 183 213 112 53 66 71 89 149 209 197 186 188 188 187 194 192 201 213 168 168 205 187 197 190 208 194 84 140 170 219 222 134 262 286
360 0 358 352 352 351 347 335 331 323 321 308 291 254 235 214 203 198 192 188 189 178 172 178 176 175 178 179 188 192 179 179 185 189 194 189 180 176 178 185 186 180 180 178 181 167 160 160 172 174 177 159 91 105 136 99 82 80 90 103 59 169 163 165 211 190 192 214 200 166 204 214 211 198 210 176 160 188 164 180 204 132 204 209 259
3 0 356 352 356 356 353 345 335 325 317 316 305 271 235 212 200 194 186 187 191 179 176 185 173 164 166 171 181 187 186 175 171 191 201 195 184 175 175 177 181 183 183 185 168 150 144 130 109 104 119 127 122 107 110 116 106 101 98 80 63 55 49 227 219 184 192 202 187 208 199 215 200 173 194 174 183 169 178 163 177 187 189 215 242
5 4 359 357 355 355 355 351 343 335 326 308 304 292 244 214 201 190 186 181 168 181 184 162 169 162 157 163 177 187 195 179 176 189 205 202 191 171 170 170 170 177 174 168 151 147 139 125 110 90 113 128 123 123 119 111 101 97 92 84 69 60 40 19 329 220 189 204 211 211 203 176 168 196 188 188 160 173 163 181 177 185 190 215 224
7 5 2 0 356 355 354 352 349 341 335 328 326 313 269 224 208 186 168 158 168 165 157 164 161 164 167 169 170 178 191 185 182 191 206 202 178 146 130 121 112 105 123 139 142 146 151 143 135 129 133 136 135 130 125 119 121 102 83 72 72 58 54 37 30 40 151 195 195 200 188 180 187 176 181 147 158 181 172 188 159 168 176 213 207
5 3 3 0 358 357 355 354 353 349 347 347 352 0 349 297 190 179 167 160 158 159 161 157 154 151 147 154 158 166 174 161 186 179 173 159 136 116 109 100 96 91 83 90 99 114 121 119 129 138 147 152 152 145 129 123 110 103 88 77 70 68 63 49 29 20 59 79 72 73 95 88 84 92 111 160 151 140 163 157 164 168 169 140 25
5 2 1 359 358 357 356 356 356 358 358 359 13 12 11 9 6 360 47 84 73 92 85 113 131 133 137 147 151 142 62 104 155 157 149 135 119 109 113 106 105 98 91 80 86 86 94 117 128 129 145 149 153 142 130 123 110 105 98 87 77 66 55 49 58 48 56 66 70 73 67 67 65 63 38 91 117 111 99 91 76 80 114 99 247
5 2 0 357 357 357 359 359 360 4 6 10 16 22 22 18 14 13 11 16 88 86 88 82 75 94 107 128 144 120 84 73 125 148 147 132 116 112 106 102 92 90 81 80 86 90 93 113 122 131 135 129 143 136 132 121 109 110 112 104 90 76 65 47 60 67 76 80 82 82 79 74 69 62 56 48 36 28 79 66 33 21 77 168 264
1 2 0 356 358 359 359 1 3 8 16 15 11 27 35 29 30 24 23 17 10 20 65 78 61 51 43 30 14 108 78 66 90 115 138 140 135 127 121 111 100 94 92 67 68 71 72 88 116 127 132 129 142 138 137 124 119 122 121 121 111 96 85 74 90 83 86 85 81 77 71 65 63 60 53 49 46 35 62 108 167 109 91 47 114
2 0 356 356 358 0 1 5 8 13 21 17 12 20 40 49 37 36 32 21 21 9 10 46 61 55 47 42 30 35 60 56 68 84 96 103 117 122 121 114 107 97 96 85 58 67 65 53 58 77 114 127 128 132 135 129 127 135 133 121 119 114 132 147 117 110 96 79 58 64 53 52 54 60 55 51 50 52 56 89 124 80 96 81 76
355 0 359 0 3 1 1 5 11 14 18 23 19 13 16 55 57 45 39 31 23 21 22 29 47 49 49 47 34 32 34 40 47 66 76 83 101 117 125 121 120 117 105 96 95 63 51 56 55 60 85 96 101 105 110 119 124 127 126 120 124 122 142 106 88 101 93 89 88 72 71 57 55 51 47 49 46 42 43 36 42 73 105 117 130
6 7 7 8 7 3 0 2 8 13 14 27 29 26 20 24 57 67 53 37 27 25 26 22 38 47 45 51 49 34 36 34 36 51 61 64 68 91 97 107 119 117 112 98 84 86 69 61 61 68 80 86 91 92 89 83 88 90 86 94 84 118 117 101 92 88 89 87 80 75 71 66 63 64 63 58 57 53 57 51 52 62 97 117 137
10 18 17 13 10 6 4 3 5 8 14 20 32 35 28 27 26 47 70 62 41 30 26 23 22 46 47 43 47 43 34 37 43 34 45 58 61 61 83 71 80 114 104 101 92 80 77 73 65 75 83 85 86 90 91 91 93 87 85 98 103 106 102 96 100 93 85 84 84 75 70 63 59 54 46 43 31 24 30 27 32 26 15 224 198
15 20 23 19 13 9 9 13 8 5 7 17 31 32 29 30 28 25 31 59 67 47 31 24 14 34 51 40 40 40 36 36 35 39 41 47 53 59 62 69 66 71 100 104 99 102 92 86 83 81 81 81 80 82 86 89 84 90 98 96 100 103 103 97 95 88 80 74 71 69 59 53 53 45 34 24 14 7 14 16 0 359 345 342 316
18 23 19 19 15 13 14 16 14 13 7 5 23 32 32 29 32 28 32 28 29 53 52 40 25 22 36 36 33 37 33 29 32 37 42 46 53 56 56 56 59 74 75 84 87 87 90 84 92 86 78 76 76 75 74 79 99 102 99 99 94 91 95 97 93 93 94 85 78 74 63 52 58 50 34 10 17 352 357 9 353 354 339 339 318
26 19 16 14 15 11 21 23 21 20 16 16 18 13 26 32 33 23 26 31 37 30 21 34 48 36 30 34 28 37 38 30 24 25 34 44 49 57 60 58 51 60 71 64 72 80 92 95 89 87 89 83 77 78 76 78 84 91 95 98 97 87 89 94 105 104 90 93 95 92 81 64 65 54 21 24 29 23 356 346 352 0 349 33 59
26 17 13 13 13 15 23 23 24 23 27 25 28 25 17 21 40 37 34 34 32 33 28 25 25 34 38 26 23 23 29 34 27 21 17 27 40 53 67 73 77 74 76 79 77 79 80 79 78 74 75 82 78 77 80 79 76 75 76 77 75 77 72 91 93 93 95 95 85 77 69 53 53 19 39 54 50 32 10 356 4 11 5 3 43
25 21 13 8 14 17 29 23 23 25 25 28 34 34 31 26 30 25 32 47 50 48 40 29 28 28 33 30 25 19 21 23 19 15 11 15 22 32 54 66 77 80 76 71 70 70 71 74 81 84 84 78 77 76 77 74 70 68 68 70 73 73 71 63 75 82 91 94 92 85 72 57 67 43 32 32 39 26 7 358 23 16 0 7 50
27 21 11 8 12 12 23 25 32 35 27 30 34 31 29 34 42 35 24 12 55 57 51 52 48 44 42 36 29 26 23 21 24 13 1 4 11 29 46 59 67 87 89 80 77 73 76 72 67 64 71 68 65 60 60 64 66 66 60 61 68 71 80 89 80 77 69 85 91 85 59 49 49 38 42 45 41 23 6 22 24 16 11 348 51
19 18 13 13 10 3 15 24 28 32 33 43 48 40 34 28 44 52 28 6 19 86 100 69 43 9 37 47 61 63 39 19 357 348 354 4 8 50 79 81 83 73 82 97 90 71 72 67 66 63 63 71 65 66 66 65 57 52 54 54 63 58 49 42 61 56 59 63 58 55 58 54 56 43 42 48 33 21 5 26 25 28 28 54 73
18 8 359 12 9 9 10 17 21 29 35 35 46 59 52 54 44 56 43 31 50 50 64 84 49 44 80 51 17 50 49 342 334 2 11 10 22 40 74 94 101 103 85 74 94 91 81 86 70 74 72 75 80 77 78 81 84 74 61 57 64 64 63 59 59 57 51 60 63 59 49 56 53 44 47 53 39 42 28 32 26 13 43 32 44
18 2 0 1 2 18 26 14 3 22 33 32 37 50 43 37 43 48 52 47 46 45 47 45 41 37 49 71 46 49 40 53 47 49 46 45 59 74 82 93 98 103 112 101 56 77 92 89 83 78 79 82 88 86 86 84 82 84 72 64 54 55 56 53 42 58 62 69 62 62 58 55 63 49 62 43 48 35 41 38 46 38 44 34 43
22 350 345 344 4 26 39 40 27 19 12 23 32 33 40 53 33 20 32 46 44 43 42 42 44 49 47 46 57 39 46 63 68 67 74 76 82 86 81 75 70 74 76 94 88 74 82 97 95 91 98 90 80 79 76 82 76 78 84 73 55 42 56 58 31 55 63 60 62 60 60 65 67 66 57 49 48 51 33 31 32 31 30 38 42
22 359 354 352 3 24 33 40 40 42 35 28 21 21 45 48 48 23 1 19 49 50 40 32 32 42 55 58 65 79 77 68 68 73 81 82 83 85 81 68 60 47 81 72 99 91 82 85 90 85 83 87 78 79 76 74 79 73 71 80 71 58 57 53 48 67 66 76 82 77 72 66 66 69 61 53 51 43 38 38 36 41 41 34 21
36 28 3 351 3 14 26 45 48 45 35 26 28 46 33 28 28 18 15 6 4 19 29 28 24 22 31 45 62 64 64 67 65 70 78 85 92 90 90 81 68 50 76 101 92 94 84 83 74 75 73 83 86 88 80 68 65 76 76 78 85 78 70 70 75 75 77 72 75 72 71 67 54 64 61 61 57 58 48 38 25 27 26 26 5
38 33 22 14 22 16 9 39 63 59 44 34 25 21 26 24 32 32 31 29 25 21 357 1 15 28 27 19 26 48 63 61 59 58 60 69 76 87 81 67 56 39 47 53 76 87 94 93 95 81 88 88 78 89 90 89 89 84 89 93 86 84 79 68 68 71 74 76 75 67 52 67 65 69 71 61 51 46 43 34 25 28 30 9 3
37 48 29 8 357 9 23 33 53 70 76 58 54 42 27 32 36 37 30 37 34 29 20 11 0 6 31 35 27 29 37 47 52 48 38 27 4 24 78 83 79 62 70 40 69 65 70 82 92 87 86 85 88 83 85 91 89 90 86 94 93 89 87 81 77 75 70 76 76 78 71 64 56 61 72 67 61 56 41 27 357 341 1 17 4
34 39 38 358 331 327 351 38 52 61 68 72 65 54 48 34 41 51 51 41 38 25 20 358 4 10 21 22 13 12 21 37 42 43 37 36 43 58 82 83 94 82 67 67 70 84 79 62 70 80 78 91 85 95 95 92 90 89 82 78 90 86 77 82 79 79 74 65 16 14 31 63 61 44 44 66 59 54 38 316 318 1 12 14 8
50 40 23 359 330 333 349 60 72 78 63 60 59 81 57 40 29 40 63 60 42 33 27 16 21 37 24 343 350 5 339 2 22 30 22 25 33 52 57 64 59 70 73 55 58 77 76 60 65 89 93 99 102 100 95 90 87 89 99 95 85 94 102 89 72 52 62 74 59 10 339 349 22 56 52 55 51 330 321 298 322 355 4 20 19
8 20 13 13 43 353 324 347 80 97 80 63 65 82 85 65 41 36 35 42 51 45 38 32 23 11 349 326 341 338 10 22 27 23 22 23 33 46 65 59 62 61 58 63 68 76 85 84 79 81 93 94 94 88 92 94 94 90 92 97 96 92 88 83 83 67 64 68 86 108 124 354 253 131 142 118 68 151 288 359 28 50 18 353 343
4 4 357 355 12 16 352 352 41 93 113 113 88 90 91 86 86 70 49 50 39 26 32 40 21 357 338 346 340 349 36 32 24 18 34 40 42 34 44 56 48 55 59 62 60 75 81 74 74 87 86 87 89 89 91 101 97 104 100 96 101 88 75 84 102 109 106 189 75 79 127 160 116 170 172 121 110 127 51 30 19 20 236 283 299
3 353 353 349 350 7 19 3 22 101 121 109 117 77 38 104 96 91 78 59 44 32 29 24 10 344 335 6 13 20 28 35 11 26 29 41 40 42 43 47 56 59 52 62 63 63 71 82 73 78 78 83 88 95 97 92 102 94 96 94 86 95 94 89 96 91 117 124 137 101 65 73 117 87 59 35 81 75 54 59 53 56 278 263 283
15 4 357 348 355 10 22 22 0 25 84 105 95 113 130 104 81 115 111 92 64 33 39 18 358 352 4 38 36 38 55 27 18 27 32 30 36 46 43 47 38 48 55 57 75 85 80 75 79 85 105 106 104 96 91 93 104 114 115 112 108 109 96 91 91 113 113 94 92 90 79 71 82 85 62 29 41 41 40 30 17 356 8 3 356
17 16 346 344 7 2 356 331 290 145 142 132 151 141 142 137 144 143 125 117 100 72 65 22 10 24 4 359 22 30 58 39 45 28 29 25 22 25 30 29 20 25 30 34 30 67 88 85 77 70 101 125 135 144 139 149 137 118 114 113 121 117 114 113 104 89 81 76 74 79 91 94 77 66 52 43 32 38 38 11 4 7 353 356 358
25 5 351 346 349 357 2 355 351 329 306 226 165 157 147 148 131 137 138 133 112 122 156 119 68 46 350 321 359 41 34 37 39 25 34 32 34 39 33 9 14 32 35 33 25 40 85 92 94 77 59 49 69 78 97 116 137 135 134 126 116 119 142 154 145 132 113 94 87 81 71 71 58 53 50 34 32 39 17 12 7 357 347 356 3
27 21 359 350 352 0 346 348 353 346 348 336 335 337 147 132 129 133 137 136 174 172 227 148 72 43 353 304 309 50 12 347 35 66 32 26 18 12 354 3 353 25 43 29 358 37 81 89 104 99 83 52 36 69 81 109 119 128 135 133 136 151 185 195 184 179 175 134 93 92 80 79 72 61 57 43 53 44 34 14 1 0 0 356 8
19 6 357 344 336 338 335 340 347 0 358 305 267 252 71 95 126 142 146 169 179 187 223 78 112 136 221 286 315 6 109 200 239 279 290 232 198 281 281 295 310 9 54 7 356 61 91 126 125 123 120 117 92 64 61 65 78 92 117 121 144 165 185 171 166 172 163 124 103 92 99 91 88 84 71 59 40 32 40 11 13 12 354 321 334
31 358 342 332 330 316 314 313 341 357 4 359 251 218 143 124 128 129 151 171 178 197 207 176 187 197 167 36 345 314 318 297 218 213 207 207 206 222 254 236 295 26 66 80 22 81 112 116 127 131 133 134 112 96 73 61 50 63 46 22 54 262 216 198 186 167 137 161 145 153 135 116 104 112 79 96 314 3 23 28 2 350 350 356 342
19 355 332 324 327 330 323 333 334 340 353 22 352 356 20 141 124 125 149 166 179 205 220 220 45 1 264 225 217 245 197 322 299 215 230 165 101 7 70 51 15 26 47 49 39 65 89 117 127 128 131 132 125 123 117 93 94 75 169 232 250 317 356 10 54 69 183 160 180 167 145 126 119 121 126 94 15 358 359 1 344 338 6 350 344
357 342 329 328 319 308 309 319 319 323 313 303 349 94 183 236 156 169 176 181 203 221 212 214 243 258 217 273 304 351 315 162 169 241 246 118 130 129 109 114 105 85 69 43 354 50 87 113 115 112 121 117 124 123 113 114 131 169 21 350 4 7 12 1 346 293 210 185 159 142 122 123 128 144 152 175 4 15 9 339 348 347 1 320 298
333 329 332 331 324 317 307 285 278 276 265 195 162 168 155 208 217 196 194 193 212 244 236 228 243 243 223 342 4 227 283 1 349 308 306 7 141 124 129 121 106 117 142 173 223 46 77 113 119 116 110 127 104 105 133 164 176 21 13 8 7 16 5 351 355 24 188 184 189 164 141 117 117 103 88 88 88 54 31 1 336 335 1 302 311
315 328 332 319 310 306 312 313 300 276 247 207 172 185 193 226 251 211 189 190 220 235 231 232 249 246 200 212 235 190 193 212 239 238 252 245 197 160 147 150 143 141 159 152 137 118 133 148 153 143 144 138 148 157 156 155 132 129 357 12 20 20 28 37 33 5 6 170 155 157 129 130 102 65 29 40 55 57 14 342 343 344 329 289 318